GW5972 Weather Reports


time (UTC)temp
C
wind
direction
speed
KPH
gust
KPH
rain 1hr
cm
rain 24hr
cm
rain mn
cm
humidity
%
barometer
mb
20260510225336 9 27 4.8 8.0 0.00 0.00 0.00 70 1008.0
20260510224836 9 57 0.0 3.2 0.00 0.00 0.00 69 1008.0
20260510224336 9 57 1.6 4.8 0.00 0.00 0.00 69 1008.0
20260510223837 9 66 0.0 1.6 0.00 0.00 0.00 69 1008.0
20260510223336 9 26 1.6 8.0 0.00 0.00 0.00 67 1008.0
20260510222836 9 84 1.6 4.8 0.00 0.00 0.00 65 1008.0
20260510222337 9 62 1.6 3.2 0.00 0.00 0.00 66 1008.0
20260510221836 8 77 1.6 3.2 0.00 0.00 0.00 71 1008.0
20260510221337 8 58 0.0 0.0 0.00 0.00 0.00 74 1008.0
20260510220836 8 47 0.0 4.8 0.00 0.00 0.00 76 1008.0
20260510220336 9 73 0.0 0.0 0.00 0.00 0.00 76 1008.0
20260510215836 9 64 0.0 0.0 0.00 0.00 0.00 76 1008.0
20260510215336 9 0 0.0 0.0 0.00 0.00 0.00 75 1009.0
20260510214838 9 63 0.0 1.6 0.00 0.00 0.00 74 1009.0
20260510214336 9 88 0.0 1.6 0.00 0.00 0.00 73 1009.0
20260510213836 9 89 0.0 0.0 0.00 0.00 0.00 73 1009.0
20260510213336 9 110 0.0 1.6 0.00 0.00 0.00 72 1009.0
20260510212836 9 74 1.6 3.2 0.00 0.00 0.00 71 1009.0
20260510212337 9 77 0.0 0.0 0.00 0.00 0.00 71 1009.0
20260510211836 9 77 0.0 1.6 0.00 0.00 0.00 70 1009.0
20260510211339 8 92 3.2 4.8 0.00 0.00 0.00 69 1009.0
20260510210836 9 46 0.0 1.6 0.00 0.00 0.00 68 1009.0
20260510210336 9 35 0.0 0.0 0.00 0.00 0.00 67 1009.0
20260510205836 9 12 0.0 3.2 0.00 0.00 0.00 67 1009.0
20260510205337 8 48 0.0 0.0 0.00 0.00 0.00 66 1010.0
20260510204837 8 58 0.0 1.6 0.00 0.00 0.00 66 1009.0
20260510204336 8 33 0.0 0.0 0.00 0.00 0.00 65 1010.0
20260510203837 8 33 0.0 0.0 0.00 0.00 0.00 64 1010.0
20260510203336 8 33 1.6 4.8 0.00 0.00 0.00 64 1010.0
20260510202836 8 78 0.0 0.0 0.00 0.00 0.00 64 1010.0
20260510202337 8 78 0.0 1.6 0.00 0.00 0.00 65 1010.0
20260510201836 9 78 0.0 0.0 0.00 0.00 0.00 67 1010.0
20260510201336 9 78 0.0 0.0 0.00 0.00 0.00 67 1010.0
20260510200837 9 78 0.0 1.6 0.00 0.00 0.00 68 1010.0
20260510200337 9 77 0.0 1.6 0.00 0.00 0.00 69 1010.0
20260510195836 9 77 0.0 0.0 0.00 0.00 0.00 69 1010.0
20260510195336 9 77 0.0 0.0 0.00 0.00 0.00 68 1010.0
20260510194836 10 51 0.0 3.2 0.00 0.00 0.00 68 1010.0
20260510194336 10 23 0.0 1.6 0.00 0.00 0.00 68 1010.0
20260510193836 10 15 0.0 3.2 0.00 0.00 0.00 67 1010.0
20260510193336 10 60 0.0 1.6 0.00 0.00 0.00 67 1010.0
20260510192837 10 31 0.0 1.6 0.00 0.00 0.00 66 1010.0
20260510192337 10 61 0.0 1.6 0.00 0.00 0.00 66 1010.0
20260510191836 10 86 0.0 1.6 0.00 0.00 0.00 66 1010.0
20260510191336 10 32 0.0 3.2 0.00 0.00 0.00 66 1010.0
20260510190837 10 68 0.0 1.6 0.00 0.00 0.00 65 1010.0
20260510190336 10 259 0.0 1.6 0.00 0.00 0.00 66 1010.0
20260510185836 10 11 1.6 11.3 0.00 0.00 0.00 65 1010.0
20260510185336 10 31 0.0 0.0 0.00 0.00 0.00 65 1010.0
20260510184836 10 78 1.6 1.6 0.00 0.00 0.00 64 1010.0
20260510184336 10 79 0.0 1.6 0.00 0.00 0.00 64 1010.0
20260510183836 10 102 3.2 3.2 0.00 0.00 0.00 64 1010.0
20260510183336 10 40 3.2 9.7 0.00 0.00 0.00 63 1010.0
20260510182836 10 45 1.6 4.8 0.00 0.00 0.00 64 1010.0
20260510182337 11 67 1.6 4.8 0.00 0.00 0.00 61 1010.0
20260510181839 11 95 0.0 1.6 0.00 0.00 0.00 59 1010.0
20260510181339 11 43 0.0 3.2 0.00 0.00 0.00 56 1010.0
20260510180837 11 72 0.0 1.6 0.00 0.00 0.00 56 1010.0
20260510180336 11 51 0.0 8.0 0.00 0.00 0.00 55 1010.0
20260510175836 11 356 4.8 9.7 0.00 0.00 0.00 55 1011.0
20260510175336 11 61 0.0 4.8 0.00 0.00 0.00 55 1010.0
20260510174836 11 46 0.0 1.6 0.00 0.00 0.00 56 1011.0
20260510174336 11 33 1.6 11.3 0.00 0.00 0.00 54 1010.0
20260510173836 11 89 1.6 9.7 0.00 0.00 0.00 55 1010.0
20260510173336 11 281 0.0 4.8 0.00 0.00 0.00 58 1011.0
20260510172836 11 32 3.2 8.0 0.00 0.00 0.00 56 1011.0
20260510172336 11 45 1.6 4.8 0.00 0.00 0.00 56 1011.0
20260510171836 11 32 0.0 3.2 0.00 0.00 0.00 56 1011.0
20260510171336 11 43 0.0 4.8 0.00 0.00 0.00 54 1011.0
20260510170836 12 51 3.2 3.2 0.00 0.00 0.00 54 1011.0
20260510170337 12 19 0.0 1.6 0.00 0.00 0.00 56 1011.0
20260510165837 12 51 3.2 8.0 0.00 0.00 0.00 56 1011.0
20260510165336 12 48 0.0 3.2 0.00 0.00 0.00 55 1011.0
20260510164842 12 54 1.6 4.8 0.00 0.00 0.00 52 1011.0
20260510164337 12 48 1.6 3.2 0.00 0.00 0.00 52 1011.0
20260510163836 12 78 1.6 4.8 0.00 0.00 0.00 49 1011.0
20260510163336 12 298 1.6 3.2 0.00 0.00 0.00 49 1011.0
20260510162837 12 358 1.6 3.2 0.00 0.00 0.00 51 1012.0
20260510162336 12 342 3.2 4.8 0.00 0.00 0.00 49 1012.0
20260510161837 12 88 3.2 4.8 0.00 0.00 0.00 51 1012.0
20260510161337 12 53 0.0 9.7 0.00 0.00 0.00 50 1012.0
20260510160837 12 34 0.0 4.8 0.00 0.00 0.00 52 1012.0
20260510160337 12 71 1.6 1.6 0.00 0.00 0.00 53 1012.0
20260510155836 12 73 3.2 3.2 0.00 0.00 0.00 52 1012.0
20260510155337 12 100 1.6 1.6 0.00 0.00 0.00 55 1012.0
20260510154836 12 105 1.6 4.8 0.00 0.00 0.00 52 1012.0
20260510154338 12 13 1.6 4.8 0.00 0.00 0.00 53 1012.0
20260510153836 12 290 3.2 4.8 0.00 0.00 0.00 54 1012.0
20260510153337 12 8 3.2 4.8 0.00 0.00 0.00 56 1012.0
20260510152836 12 89 0.0 3.2 0.00 0.00 0.00 55 1012.0
20260510152336 13 68 3.2 4.8 0.00 0.00 0.00 52 1012.0
20260510151836 12 55 1.6 3.2 0.00 0.00 0.00 54 1012.0
20260510151337 12 68 1.6 1.6 0.00 0.00 0.00 55 1012.0
20260510150836 12 83 3.2 8.0 0.00 0.00 0.00 52 1012.0
20260510150336 12 36 1.6 11.3 0.00 0.00 0.00 57 1013.0
20260510145836 12 73 3.2 3.2 0.00 0.00 0.00 54 1012.0
20260510145337 13 357 3.2 8.0 0.00 0.00 0.00 54 1013.0
20260510144836 13 23 6.4 9.7 0.00 0.00 0.00 53 1013.0
20260510144336 13 333 1.6 8.0 0.00 0.00 0.00 54 1012.0
20260510143836 13 68 0.0 4.8 0.00 0.00 0.00 56 1012.0
20260510143337 13 50 3.2 8.0 0.00 0.00 0.00 53 1013.0
20260510142836 13 86 0.0 1.6 0.00 0.00 0.00 54 1013.0
20260510142336 14 72 3.2 9.7 0.00 0.00 0.00 54 1013.0
20260510141836 15 66 1.6 4.8 0.00 0.00 0.00 52 1013.0
20260510141336 14 73 1.6 3.2 0.00 0.00 0.00 53 1013.0
20260510140837 15 73 1.6 3.2 0.00 0.00 0.00 52 1013.0
20260510140337 15 13 1.6 4.8 0.00 0.00 0.00 53 1013.0
20260510135837 15 27 1.6 9.7 0.00 0.00 0.00 53 1013.0
20260510135337 15 32 1.6 9.7 0.00 0.00 0.00 52 1013.0
20260510134837 15 35 3.2 9.7 0.00 0.00 0.00 50 1013.0
20260510134337 15 8 1.6 3.2 0.00 0.00 0.00 50 1013.0
20260510133836 15 39 3.2 4.8 0.00 0.00 0.00 50 1013.0
20260510133336 14 92 1.6 3.2 0.00 0.00 0.00 54 1013.0
20260510132836 14 66 1.6 3.2 0.00 0.00 0.00 54 1013.0
20260510132337 15 56 3.2 4.8 0.00 0.00 0.00 51 1013.0
20260510131836 15 48 1.6 11.3 0.00 0.00 0.00 53 1013.0
20260510131337 15 75 1.6 11.3 0.00 0.00 0.00 53 1013.0
20260510130836 15 50 1.6 4.8 0.00 0.00 0.00 54 1013.0
20260510130338 15 98 1.6 3.2 0.00 0.00 0.00 52 1013.0
20260510125836 15 49 4.8 4.8 0.00 0.00 0.00 52 1013.0
20260510125336 13 33 0.0 3.2 0.00 0.00 0.00 54 1013.0
20260510124836 13 8 1.6 4.8 0.00 0.00 0.00 53 1014.0
20260510124337 13 68 4.8 9.7 0.00 0.00 0.00 53 1013.0
20260510123836 13 347 1.6 3.2 0.00 0.00 0.00 53 1014.0
20260510123337 14 64 0.0 4.8 0.00 0.00 0.00 53 1014.0
20260510122836 14 58 0.0 1.6 0.00 0.00 0.00 43 1014.0
20260510122336 15 62 0.0 3.2 0.00 0.00 0.00 48 1014.0
20260510121836 15 32 0.0 0.0 0.00 0.00 0.00 42 1014.0
20260510121337 15 25 3.2 9.7 0.00 0.00 0.00 37 1014.0
20260510120836 16 36 1.6 1.6 0.00 0.00 0.00 39 1014.0
20260510120337 15 131 0.0 1.6 0.00 0.00 0.00 42 1014.0
20260510115836 15 169 0.0 4.8 0.00 0.00 0.00 44 1014.0
20260510115336 15 287 1.6 1.6 0.00 0.00 0.00 40 1014.0
20260510114836 14 343 0.0 1.6 0.00 0.00 0.00 42 1014.0
20260510114336 14 318 0.0 1.6 0.00 0.00 0.00 43 1014.0
20260510113837 14 314 0.0 1.6 0.00 0.00 0.00 42 1014.0
20260510113336 14 41 1.6 1.6 0.00 0.00 0.00 42 1014.0
20260510112836 15 30 0.0 1.6 0.00 0.00 0.00 42 1014.0
20260510112336 15 355 0.0 1.6 0.00 0.00 0.00 41 1014.0
20260510111837 15 13 1.6 1.6 0.00 0.00 0.00 42 1014.0
20260510111336 15 69 0.0 1.6 0.00 0.00 0.00 42 1014.0
20260510110836 15 63 0.0 1.6 0.00 0.00 0.00 42 1014.0
20260510110336 14 40 0.0 1.6 0.00 0.00 0.00 43 1014.0
20260510105837 15 36 1.6 3.2 0.00 0.00 0.00 41 1014.0
20260510104907 15 25 0.0 1.6 0.00 0.00 0.00 42 1015.0
20260510104336 15 46 0.0 1.6 0.00 0.00 0.00 44 1015.0
20260510103837 14 48 0.0 0.0 0.00 0.00 0.00 45 1015.0
20260510103336 14 9 1.6 1.6 0.00 0.00 0.00 45 1015.0
20260510102836 13 24 1.6 1.6 0.00 0.00 0.00 45 1015.0
20260510102338 14 10 0.0 1.6 0.00 0.00 0.00 45 1015.0
20260510101836 13 20 0.0 1.6 0.00 0.00 0.00 46 1015.0
20260510101336 13 8 1.6 3.2 0.00 0.00 0.00 47 1015.0
20260510100837 13 42 1.6 3.2 0.00 0.00 0.00 47 1015.0
20260510100336 13 36 0.0 3.2 0.00 0.00 0.00 48 1015.0
20260510095836 13 33 0.0 4.8 0.00 0.00 0.00 48 1015.0
20260510095336 13 29 1.6 1.6 0.00 0.00 0.00 48 1015.0
20260510094836 12 21 0.0 1.6 0.00 0.00 0.00 50 1015.0
20260510094336 12 55 0.0 3.2 0.00 0.00 0.00 52 1015.0
20260510093836 11 45 1.6 1.6 0.00 0.00 0.00 52 1016.0
20260510093336 11 63 1.6 3.2 0.00 0.00 0.00 55 1015.0
20260510092836 10 25 0.0 3.2 0.00 0.00 0.00 57 1015.0
20260510092336 10 34 1.6 3.2 0.00 0.00 0.00 56 1015.0
20260510091836 10 36 0.0 3.2 0.00 0.00 0.00 57 1016.0
20260510091336 10 41 0.0 3.2 0.00 0.00 0.00 57 1016.0
20260510090836 10 28 3.2 4.8 0.00 0.00 0.00 59 1016.0
20260510090336 10 36 0.0 3.2 0.00 0.00 0.00 61 1016.0
20260510085837 10 34 1.6 1.6 0.00 0.00 0.00 61 1016.0
20260510085336 10 34 1.6 1.6 0.00 0.00 0.00 61 1016.0
20260510084836 10 34 1.6 1.6 0.00 0.00 0.00 62 1016.0
20260510084336 10 30 1.6 1.6 0.00 0.00 0.00 63 1016.0
20260510083836 10 36 1.6 3.2 0.00 0.00 0.00 63 1016.0
20260510083336 10 35 0.0 1.6 0.00 0.00 0.00 64 1016.0
20260510082837 10 45 0.0 1.6 0.00 0.00 0.00 64 1016.0
20260510082336 9 37 0.0 0.0 0.00 0.00 0.00 65 1016.0
20260510081836 9 37 0.0 1.6 0.00 0.00 0.00 65 1016.0
20260510081336 9 37 1.6 3.2 0.00 0.00 0.00 64 1016.0
20260510080837 8 32 1.6 3.2 0.00 0.00 0.00 67 1016.0
20260510080336 8 16 1.6 1.6 0.00 0.00 0.00 66 1016.0
20260510075836 8 19 0.0 1.6 0.00 0.00 0.00 68 1016.0
20260510075337 8 40 1.6 1.6 0.00 0.00 0.00 69 1015.0
20260510074836 8 40 1.6 3.2 0.00 0.00 0.00 68 1016.0
20260510074336 8 31 1.6 3.2 0.00 0.00 0.00 69 1016.0
20260510073836 8 24 0.0 0.0 0.00 0.00 0.00 72 1016.0
20260510073336 7 24 0.0 1.6 0.00 0.00 0.00 74 1016.0
20260510072839 7 24 0.0 0.0 0.00 0.00 0.00 75 1016.0
20260510072337 7 24 0.0 1.6 0.00 0.00 0.00 74 1016.0
20260510071836 7 4 0.0 1.6 0.00 0.00 0.00 75 1016.0
20260510071336 7 4 0.0 0.0 0.00 0.00 0.00 76 1016.0
20260510070836 7 4 0.0 1.6 0.00 0.00 0.00 76 1016.0
20260510070336 7 7 0.0 0.0 0.00 0.00 0.00 76 1016.0
20260510065836 7 7 0.0 1.6 0.00 0.00 0.00 76 1016.0
20260510065338 7 7 0.0 0.0 0.00 0.00 0.00 78 1016.0
20260510064836 7 7 0.0 0.0 0.00 0.00 0.00 78 1016.0
20260510064336 7 7 0.0 1.6 0.00 0.00 0.00 77 1016.0
20260510063837 6 7 0.0 0.0 0.00 0.00 0.00 78 1016.0
20260510063337 6 7 0.0 1.6 0.00 0.00 0.00 79 1016.0
20260510062836 6 8 0.0 0.0 0.00 0.00 0.00 79 1016.0
20260510062337 6 8 0.0 0.0 0.00 0.00 0.00 79 1016.0
20260510061836 6 8 0.0 0.0 0.00 0.00 0.00 80 1016.0
20260510061336 6 8 0.0 1.6 0.00 0.00 0.00 80 1016.0
20260510060836 6 8 0.0 0.0 0.00 0.00 0.00 80 1016.0
20260510060336 6 8 0.0 0.0 0.00 0.00 0.00 80 1016.0
20260510055836 6 8 0.0 1.6 0.00 0.00 0.00 80 1016.0
20260510055336 6 8 0.0 1.6 0.00 0.00 0.00 81 1016.0
20260510054836 6 8 0.0 0.0 0.00 0.00 0.00 82 1016.0
20260510054337 6 8 0.0 0.0 0.00 0.00 0.00 82 1016.0
20260510053836 6 8 0.0 0.0 0.00 0.00 0.00 83 1016.0
20260510053337 6 8 0.0 1.6 0.00 0.00 0.00 83 1016.0
20260510052836 6 8 0.0 0.0 0.00 0.00 0.00 84 1016.0
20260510052337 6 8 0.0 1.6 0.00 0.00 0.00 84 1016.0
20260510051836 6 8 0.0 0.0 0.00 0.00 0.00 85 1016.0
20260510051336 6 8 0.0 1.6 0.00 0.00 0.00 84 1016.0
20260510050837 6 8 0.0 0.0 0.00 0.00 0.00 84 1016.0
20260510050336 6 8 0.0 0.0 0.00 0.00 0.00 84 1016.0
20260510045837 6 8 0.0 0.0 0.00 0.00 0.00 84 1016.0
20260510045336 6 8 0.0 0.0 0.00 0.00 0.00 83 1016.0
20260510044836 6 8 0.0 0.0 0.00 0.00 0.00 83 1016.0
20260510044336 6 8 0.0 0.0 0.00 0.00 0.00 83 1016.0
20260510043836 6 8 0.0 0.0 0.00 0.00 0.00 83 1016.0
20260510043337 6 8 0.0 0.0 0.00 0.00 0.00 83 1016.0
20260510042836 6 8 0.0 0.0 0.00 0.00 0.00 83 1016.0
20260510042337 6 8 0.0 0.0 0.00 0.00 0.00 83 1016.0
20260510041837 6 8 0.0 0.0 0.00 0.00 0.00 83 1016.0
20260510041336 6 8 0.0 0.0 0.00 0.00 0.00 83 1016.0
20260510040836 6 8 0.0 0.0 0.00 0.00 0.00 83 1016.0
20260510040336 6 8 0.0 0.0 0.00 0.00 0.00 83 1016.0
20260510035838 6 8 0.0 0.0 0.00 0.00 0.00 83 1016.0
20260510035336 6 8 0.0 0.0 0.00 0.00 0.00 83 1016.0
20260510034837 6 8 0.0 0.0 0.00 0.00 0.00 83 1016.0
20260510034336 6 8 0.0 0.0 0.00 0.00 0.00 83 1016.0
20260510033836 6 8 0.0 1.6 0.00 0.00 0.00 83 1016.0
20260510033336 6 8 0.0 1.6 0.00 0.00 0.00 83 1016.0
20260510032836 6 8 0.0 0.0 0.00 0.00 0.00 83 1016.0
20260510032336 6 8 0.0 0.0 0.00 0.00 0.00 83 1016.0
20260510031836 6 8 0.0 0.0 0.00 0.00 0.00 83 1016.0
20260510031336 6 8 0.0 0.0 0.00 0.00 0.00 83 1016.0
20260510030836 6 8 0.0 1.6 0.00 0.00 0.00 83 1016.0
20260510030336 6 8 0.0 0.0 0.00 0.00 0.00 83 1016.0
20260510025837 6 8 0.0 0.0 0.00 0.00 0.00 83 1016.0
20260510025336 6 8 0.0 0.0 0.00 0.00 0.00 83 1016.0
20260510024836 6 8 0.0 0.0 0.00 0.00 0.00 83 1016.0
20260510024336 6 8 0.0 1.6 0.00 0.00 0.00 84 1016.0
20260510023836 6 8 0.0 0.0 0.00 0.00 0.00 84 1016.0
20260510023336 6 10 0.0 0.0 0.00 0.00 0.00 84 1016.0
20260510022836 6 10 0.0 0.0 0.00 0.00 0.00 83 1016.0
20260510022336 6 10 0.0 0.0 0.00 0.00 0.00 83 1016.0
20260510021836 6 10 0.0 0.0 0.00 0.00 0.00 83 1016.0
20260510021336 6 10 0.0 0.0 0.00 0.00 0.00 83 1016.0
20260510020836 6 10 0.0 0.0 0.00 0.00 0.00 83 1016.0
20260510020336 6 10 0.0 0.0 0.00 0.00 0.00 83 1016.0
20260510015836 6 10 0.0 0.0 0.00 0.00 0.00 83 1016.0
20260510015336 6 10 0.0 0.0 0.00 0.00 0.00 82 1016.0
20260510014836 7 10 0.0 0.0 0.00 0.00 0.00 82 1016.0
20260510014336 7 10 0.0 0.0 0.00 0.00 0.00 82 1016.0
20260510013837 7 10 0.0 0.0 0.00 0.00 0.00 82 1016.0
20260510013337 7 10 0.0 0.0 0.00 0.00 0.00 81 1016.0
20260510012837 7 10 0.0 0.0 0.00 0.00 0.00 81 1016.0
20260510012336 7 10 0.0 0.0 0.00 0.00 0.00 81 1016.0
20260510011837 7 10 0.0 0.0 0.00 0.00 0.00 81 1016.0
20260510011337 7 10 0.0 0.0 0.00 0.00 0.00 80 1016.0
20260510010836 7 10 0.0 0.0 0.00 0.00 0.00 80 1016.0
20260510010336 7 10 0.0 0.0 0.00 0.00 0.00 80 1016.0
20260510005836 7 10 0.0 0.0 0.00 0.00 0.00 79 1016.0
20260510005336 7 10 0.0 0.0 0.00 0.00 0.00 79 1016.0
20260510004836 7 10 0.0 1.6 0.00 0.00 0.00 78 1016.0
20260510004336 7 10 0.0 0.0 0.00 0.00 0.00 78 1016.0
20260510003836 8 10 0.0 0.0 0.00 0.00 0.00 78 1016.0
20260510003336 8 10 0.0 0.0 0.00 0.00 0.00 78 1016.0
20260510002836 8 10 1.6 1.6 0.00 0.00 0.00 77 1016.0
20260510002337 8 10 0.0 1.6 0.00 0.00 0.00 77 1016.0
20260510001836 8 10 0.0 0.0 0.00 0.00 0.00 77 1016.0
20260510001337 8 10 0.0 0.0 0.00 0.00 0.00 77 1016.0
20260510000838 8 10 0.0 1.6 0.00 0.00 0.00 76 1016.0
20260510000336 8 9 1.6 1.6 0.00 0.00 0.00 77 1016.0
20260509235836 8 9 0.0 1.6 0.00 0.00 0.25 76 1016.0
20260509235336 8 9 0.0 0.0 0.00 0.00 0.25 76 1016.0
20260509234836 8 25 0.0 0.0 0.00 0.00 0.25 76 1016.0
20260509234336 8 25 0.0 1.6 0.00 0.00 0.25 76 1016.0
20260509233837 8 25 0.0 1.6 0.00 0.00 0.25 76 1016.0
20260509233336 8 66 0.0 0.0 0.00 0.00 0.25 77 1016.0
20260509232836 8 66 0.0 0.0 0.00 0.00 0.25 77 1016.0
20260509232337 8 66 0.0 0.0 0.00 0.00 0.25 77 1016.0
20260509231836 8 66 0.0 1.6 0.00 0.00 0.25 77 1016.0
20260509231336 8 66 0.0 0.0 0.00 0.00 0.25 77 1016.0
20260509230836 8 66 1.6 1.6 0.00 0.00 0.25 76 1016.0
20260509230336 8 66 0.0 0.0 0.00 0.00 0.25 77 1016.0
20260509225836 8 66 0.0 1.6 0.00 0.00 0.25 76 1016.0